Location: Unspecified
(0.0000°N, 0.0000°E)
Time: 15:19:21
(UTC+00:00)

Courier 1B - Pass Details

Date: 10 February 2026
Orbit: 962 x 1208 km, 28.3° (Epoch: 16 March)

Event Time Altitude Azimuth Distance (km) Brightness Sun altitude
Rises 18:19:41 0° 238° (WSW) 3,845 12.4 -1.3°
Reaches altitude 10° 18:22:21 10° 236° (WSW) 2,925 11.5 -2.0°
Maximum altitude 18:29:36 81° 149° (SSE) 1,149 7.9 -3.7°
Drops below altitude 10° 18:37:17 10° 63° (ENE) 3,089 9.5 -5.6°
Enters shadow 18:38:30 - 62° (ENE) 3,503 9.8 -5.9°
